KOREASAT 6

Last updated on Thu Nov 21 2024 00:02:41 GMT+0000 (Coordinated Universal Time)

1 37265U 10070B 24325.56474689 -.00000361 00000+0 00000+0 0 9995 2 37265 0.0351 56.6608 0002704 278.8128 43.9211 1.00270836 51018
UTC large
Height (km)
Speed (km/s)
/
Latitude / Longitude
Inclination (degrees)
Orbital Period (minutes)
Azimuth
Elevation
Range (km)
Doppler Factor

Next 0 passes for location: London (51.5072 / 0.1276)

Sorry there are no passes over London.